M2 PATHFINDER

Last updated on Mon Sep 21 2026 00:03:44 GMT+0000 (Coordinated Universal Time)

1 45727U 20037E 26263.46393398 .00001382 00000+0 10172-3 0 9998 2 45727 97.8133 95.7968 0011197 183.2848 176.8306 15.05037544339825
UTC large
Height (km)
Speed (km/s)
/
Latitude / Longitude
Inclination (degrees)
Orbital Period (minutes)
Azimuth
Elevation
Range (km)
Doppler Factor

Next 0 passes for location: London (51.5072 / 0.1276)

No passes found over London.
M2 PATHFINDER